OPS 4682 DEB, 38408

Orbit data source: Space-Track

OPS 4682 DEB, 38408 is space debris in LEO originally from a launch on Sat, 03 Apr 1965 UTC launched from the Air Force Western Test Range (AFWTR). Debris objects in space refer to the collection of defunct objects orbiting the Earth. Examples of debris include non-operational satellites, rocket bodies, and fragments generated from explosions, collisions, or faulty payload assembly.

Loading next visibility...
Identifier
38408, 1965-027DM
Orbit
LEO
Country
Flag of USUS
Related business
Manufacturer
Unknown
Mission
Spacecraft
Bus & Motor
Unknown
Mass
Unknown
Launch date (UTC)
1965-04-03 (61 years ago)
Launch vehicle
Unknown
Launch site
Air Force Western Test Range (AFWTR)
Object type
Payload
Rocket body
Debris
Shape & HBR
Unknown shape, 0.1 m
Radar Cross Section
Small (<0.1 m²)

Expand to show TLE details & history
Last TLE update: 3 days ago

TLE from 3 days ago
0 OPS 4682 DEB
1 38408U 65027DM  25300.46151257 -.00000054  00000-0 -19862-3 0  9994
2 38408  90.2828   9.3589 0044226  66.2765 294.2989 13.01980358574926
Epoch: 2025-10-27T11:04Z
TLE epoch observation values (Epoch: 2025-10-27T11:04:34.686Z)
Latitude
0.00003°
Longitude
167.15135°
Altitude
1,243.455 km
Speed
7.24 km/s
True Right ascension
00h 37m 26s
True Declination
0° 00' 00"
Sunlit
Object was in full shadow at epoch
Visualization orbit readout
Latitude
Unknown
Longitude
Unknown
Altitude
Unknown
Speed
Unknown
Apparent Right ascension
Unknown
Apparent Declination
Unknown
Sunlit
N/A
Visualization observer readout
Local Sidereal Time
22:45:46
Azimuth
Unknown
Elevation
Unknown
Doppler factor
Unknown
Orbital elements
Apogee altitude
1,285.204 km
Perigee altitude
1,217.719 km
Semi-major axis
7,629.598 km
Eccentricity
0.00442
Inclination
90.2828°
RAAN
9.3589°
Arg. of periapsis
66.2765°
True anomaly
293.83596°
Mean anomaly
294.2989°
Eccentric anomaly
294.06753°
Mean motion
3.2568 °/min
Orbital period
110.54 mins
BSTAR
-0.00019862
Loading maneuver chart data...
Computing Atmospheric mass density...
Loading historical data...
Loading historical data...
Loading historical data...
Loading historical data...
Loading historical data...
Loading historical data...
Loading historical data...

Documentation

Showing up to 5 results
|